Location: *
(51.2167°N, 10.0667°E)
Time: 13:17:53
(UTC+00:00)

N. Korean satellite - Visible Passes

Search period start: 08 March 2021 00:00
Search period end: 18 March 2021 00:00
Orbit: 451 x 502 km, 97.2° (Epoch: 07 March)

Date Brightness Start Highest point End Pass type
(mag) Time Alt. Az. Time Alt. Az. Time Alt. Az.
08 Mar 7.2 04:43:25 10° NNE 04:46:58 60° E 04:50:32 10° S visible
09 Mar 8.7 04:16:53 10° NNE 04:20:05 30° E 04:23:18 10° SSE visible
10 Mar 9.7 03:50:46 10° NE 03:53:06 16° E 03:55:27 10° SE visible
11 Mar 6.6 04:56:17 10° NNE 04:59:54 86° ESE 05:03:32 10° SSW visible
12 Mar 8.0 04:29:36 10° NNE 04:33:03 42° E 04:36:32 10° S visible
13 Mar 9.3 04:03:13 10° NE 04:06:07 22° E 04:09:01 10° SE visible
14 Mar 10.0 03:37:36 10° ENE 03:39:04 12° E 03:40:31 10° ESE visible
15 Mar 7.3 04:42:22 10° NNE 04:45:57 60° E 04:49:35 10° S visible
16 Mar 8.7 04:15:48 10° NNE 04:19:03 30° E 04:22:19 10° SSE visible
17 Mar 9.7 03:49:39 10° NE 03:52:01 16° E 03:54:25 10° SE visible
